Regional Weather Roundup
Issued by NWS

Home | Current Version | Previous Version | Graphics & Text | Print | Product List | Glossary On
Versions: 1 2 3 4 5 6 7 8 9 10 11 12 13 14 15 16 17 18 19 20 21 22 23 24 25 26 27 28 29 30 31 32 33 34 35 36 37 38 39 40 41 42 43 44 45 46 47 48 49 50
000
ASUS43 KFSD 160802
RWRSD

WEATHER ROUNDUP FOR SOUTH DAKOTA
NATIONAL WEATHER SERVICE SIOUX FALLS SD
300 AM CDT TUE SEP 16 2014

NOTE: "FAIR" INDICATES FEW OR NO CLOUDS BELOW 12,000 FEET WITH NO
SIGNIFICANT WEATHER AND/OR OBSTRUCTIONS TO VISIBILITY.


SDZ001>005-009-010-012>017-160900-
NORTHWEST AND NORTH CENTRAL SOUTH DAKOTA

CITY           SKY/WX    TMP DP  RH WIND       PRES   REMARKS
FAITH            N/A     46  38  73 S17       30.06F
MOBRIDGE       CLEAR     50  41  71 S14       30.09F
$$

SDZ012>016-024>037-041>051-057-063-072>074-160900-
SOUTHWEST AND SOUTH CENTRAL SOUTH DAKOTA

CITY           SKY/WX    TMP DP  RH WIND       PRES   REMARKS
RAPID CTY ARPT CLEAR     48  42  80 SE5       30.06F
PIERRE         CLEAR     50  38  63 SE13      30.11F
CUSTER         PTCLDY    47  39  74 NW7       30.17S
ELLSWORTH AFB  CLEAR     46  41  84 W5        30.06S
PHILIP         CLEAR     45  39  79 E6        30.08F
PINE RIDGE     CLEAR     57  48  72 S12       30.10R
WINNER         FAIR      53  39  59 S20G30    30.14F
$$

SDZ004>011-016>023-039-040-160900-
NORTHEAST SOUTH DAKOTA

CITY           SKY/WX    TMP DP  RH WIND       PRES   REMARKS
ABERDEEN       CLEAR     34  33  96 S3        30.17S
WATERTOWN      CLEAR     39  36  89 SE6       30.19F
SISSETON         N/A     51  38  60 SW12      30.15F
$$

SDZ017-020-022-023-036>040-048>070-160900-
SOUTHEAST SOUTH DAKOTA

CITY           SKY/WX    TMP DP  RH WIND       PRES   REMARKS
SIOUX FALLS    CLEAR     42  41  96 CALM      30.23S
HURON          CLEAR     42  36  79 S6        30.19S
CHAMBERLAIN    CLEAR     44  39  83 SE9       30.17S
MITCHELL       CLEAR     43  39  86 S7        30.21S
YANKTON        CLEAR     45  41  87 S3        30.24S
$$

ABBREVIATIONS USED IN REMARKS
   TC - TEMPERATURE IN CELSIUS
  WCI - WIND CHILL INDEX
   HX - HEAT INDEX
  VSB - VISIBILITY




USA.gov is the U.S. government's official web portal to all federal, state and local government web resources and services.